CYGFM01 (41887 NORAD) Tracking and Keplerian Element Data

This shows tracking and keplerian element data for the satellite.

Feedback or suggestion? Click here.




ElementValue
Catalog41887
NameCYGFM01
Epoch Orbit26436
Epoch Day267.48067614
Epoch Year2021
RAAN58.3962
Inclination34.9537
Eccentricity0.0016637
Argument of Perigee233.4892
Mean Anonmoly126.4287
Mean Motion15.14944452
Decay Rate8.99E-06
L11 41887U 16078D 21267.48067614 .00000899 00000-0 48719-4 0 9993
L22 41887 34.9537 58.3962 0016637 233.4892 126.4287 15.14944452264368

Live tracking and technical data element details for CYGFM01 (NORAD 41887). CYGFM01 can be tracked NOW for your location showing map with azimuth and elevation plus other details from your city location.

Track the satellite on the map from your city or location and see movement details for azimuth, elevation, latitude, longitude, range, height, and movement on the map or in text.







IsCatalogInMostPopularTable: catalog: 41887, numindb: 620
Update: records affected: 1



GetName: 41887 CYGFM01

Hit Count: updated at: Mon, 27 Sep 2021 01:54:27 GMT